[[{"header":{"parameterUnit":"m.s-1","parameterCategory":2,"la1":30.2991,"la2":30.254,"lo1":-89.0895,"lo2":-89.0444,"dy":0.0017,"dx":0.0017,"nx":28,"ny":28,"refTime":"2025-12-04T09:00:00:Z","depth":"0","parameterNumber":2,"parameterNumberName":"U-component_of_CURRENTS"},"data":[0,0,0,0,0,0,0,0,0,0,0,0,0,0,0,0,0,0,0,0,0,0,0,0,0,0,0,0,0,0,0,0,0,0,0,0,0,0,0,0,0,0,0,0,0,0,0,0,0,0,0,0,0,0,0,0,0,0,0.2019,0.202,0,0.2081,0.2082,0.2082,0.2103,0.2103,0.2103,0.2102,0.2115,0.2115,0.2116,0,0,0,0,0,0,0,0,0,0,0,0,0,0.1921,0.1923,0.2019,0.202,0.202,0.2081,0.2082,0.2083,0.2103,0.2103,0.2103,0.2102,0.2114,0.2115,0.2116,0,0,0,0,0,0,0,0,0,0,0,0,0,0.1971,0.1924,0.2019,0.2038,0.2041,0.2081,0.2082,0.2083,0.2103,0.2103,0.2102,0.2102,0.2114,0.2115,0.2116,0.2127,0,0,0.2118,0.2119,0,0,0,0,0,0,0,0,0.1968,0.1975,0.2035,0.2037,0.204,0.2084,0.2052,0.2095,0.2103,0.2079,0.2102,0.2102,0.21,0.2102,0.2115,0.2128,0.2128,0.2118,0.2119,0.2119,0.2119,0,0,0,0,0,0,0,0.1965,0.1972,0.2043,0.2036,0.2039,0.2045,0.2052,0.2061,0.2089,0.2081,0.2083,0.2091,0.2101,0.2114,0.2115,0.2128,0.2118,0.2119,0.2119,0.212,0.216,0.2161,0,0,0,0,0,0,0.1959,0.1969,0.2041,0.2045,0.2003,0.2047,0.2055,0.207,0.209,0.2094,0.2091,0.2091,0.2113,0.2114,0.2115,0.2139,0.2119,0.212,0.212,0.2159,0.216,0.2161,0,0,0,0,0,0,0.1957,0.1965,0.2038,0.2008,0.2018,0.205,0.2066,0.2071,0.2087,0.2099,0.2101,0.2101,0.2113,0.2114,0.2129,0.2139,0.212,0.2121,0.2159,0.216,0.2161,0.218,0,0,0,0,0,0,0.1954,0.1964,0.1973,0.2008,0.202,0.2067,0.2067,0.2073,0.2092,0.2093,0.2108,0.2109,0.2112,0.2128,0.213,0.214,0.2122,0.2158,0.2159,0.216,0.2179,0.2182,0.2184,0,0,0,0,0,0.195,0.1964,0.1974,0.1982,0.2032,0.2068,0.2074,0.2095,0.2093,0.2105,0.2113,0.2108,0.2136,0.2129,0.2131,0.2142,0.2157,0.2159,0.216,0.2178,0.2181,0.2184,0,0,0,0,0,0,0.1925,0.1969,0.1979,0.2006,0.2036,0.2071,0.2083,0.2096,0.2114,0.2113,0.2118,0.212,0.2137,0.2137,0.2129,0.2157,0.2145,0.2147,0.2158,0.2161,0.2164,0.2165,0.2122,0,0,0,0,0,0.1925,0.1947,0.1988,0.2008,0.2022,0.2052,0.2069,0.2086,0.2107,0.2115,0.2124,0.2133,0.2145,0.215,0.2161,0.2176,0.2199,0.2184,0.2187,0.2189,0.2191,0.222,0.2226,0.2165,0.2165,0.2165,0,0,0.1919,0.1947,0.1958,0.2004,0.2026,0.2056,0.2061,0.209,0.2113,0.2112,0.2137,0.2143,0.2151,0.2171,0.2178,0.2171,0.2227,0.219,0.2192,0.2194,0.2222,0.2228,0.2234,0.2166,0.2166,0.2166,0,0,0.1922,0.1944,0.1966,0.1995,0.2036,0.2058,0.2067,0.2105,0.2118,0.2145,0.215,0.2162,0.2181,0.2191,0.2197,0.222,0.224,0.2223,0.2237,0.2265,0.227,0.2275,0.235,0.2361,0.2223,0.2223,0.2223,0,0.1913,0.1951,0.1976,0.2009,0.2034,0.2058,0.2089,0.211,0.2147,0.2162,0.2154,0.2191,0.219,0.2219,0.2224,0.2225,0.2261,0.2223,0.2269,0.2274,0.2278,0.2353,0.2365,0.2224,0.2224,0.2224,0.2224,0,0.1939,0.1969,0.1983,0.2033,0.2062,0.2092,0.2127,0.2152,0.2165,0.2186,0.2215,0.2219,0.2245,0.2242,0.2238,0.2272,0.2297,0.227,0.226,0.2286,0.2364,0.2376,0.2226,0.2225,0.2225,0.2225,0,0,0.1921,0.1989,0.1994,0.2023,0.208,0.2107,0.2144,0.2189,0.2221,0.2236,0.2277,0.2279,0.2285,0.2291,0.229,0.2302,0.2369,0.2299,0.23,0.2375,0.2476,0.2588,0.2613,0.235,0.2351,0.2352,0.2532,0,0.1935,0.1994,0.2025,0.2078,0.2112,0.215,0.2183,0.2225,0.2258,0.2303,0.2304,0.2341,0.2303,0.2325,0.2329,0.2364,0.2396,0.2326,0.2439,0.2444,0.254,0.2628,0.2594,0.2758,0.2544,0.2546,0.2548,0,0.1952,0.1994,0.2046,0.2112,0.2129,0.2158,0.2228,0.2263,0.2324,0.2353,0.2385,0.2405,0.2444,0.2396,0.2469,0.243,0.2456,0.247,0.2477,0.2579,0.2578,0.2691,0.2788,0.2753,0.2566,0.2565,0.2564,0,0.1933,0.2006,0.2046,0.207,0.2147,0.2172,0.2207,0.2273,0.2325,0.2394,0.2453,0.2485,0.2538,0.2548,0.2605,0.254,0.2701,0.2616,0.2746,0.2756,0.2749,0.2757,0.2823,0.2664,0.2663,0.2663,0.2662,0,0.1938,0.197,0.2038,0.2064,0.2109,0.2163,0.2223,0.2266,0.2361,0.2428,0.2474,0.2557,0.2574,0.2674,0.2669,0.2798,0.2767,0.2787,0.2815,0.2762,0.2768,0.2753,0.2714,0.2669,0.2668,0.2667,0.2666,0,0.1906,0.1954,0.2002,0.2078,0.2099,0.2128,0.2231,0.2284,0.2378,0.2478,0.2513,0.2653,0.2793,0.2857,0.2931,0.2929,0.2958,0.3046,0.3022,0.3043,0.3097,0.3061,0.3032,0.2926,0.3204,0.3208,0.3211,0,0.1892,0.1916,0.1993,0.2019,0.2049,0.211,0.2154,0.2263,0.2331,0.2534,0.2581,0.2788,0.2922,0.3147,0.3201,0.3303,0.3138,0.3313,0.3161,0.3146,0.3123,0.2932,0.2826,0.317,0.3173,0.3175,0.3177,0,0.1861,0.1886,0.1923,0.1983,0.2026,0.2087,0.2161,0.223,0.2367,0.2495,0.2683,0.2829,0.3099,0.3233,0.3421,0.3444,0.3199,0.3365,0.3323,0.3109,0.2925,0.2822,0.3039,0.3197,0.3195,0.3193,0.3192,0.3191,0.1819,0.1835,0.1888,0.1936,0.1989,0.2049,0.2078,0.219,0.2321,0.2478,0.267,0.2861,0.3161,0.3441,0.346,0.3534,0.3377,0.3435,0.3402,0.3216,0.3076,0.339,0.359,0.359,0.359,0.359,0.3591,0,0.1766,0.1798,0.1843,0.1895,0.1926,0.1982,0.2068,0.2095,0.2209,0.2412,0.2582,0.2936,0.3188,0.3388,0.3625,0.3567,0.3308,0.3494,0.3171,0.3063,0.3351,0.3314,0.3494,0.3494,0.3494,0.3494,0.3494,0.3494,0.1736,0.1756,0.1788,0.1817,0.1856,0.1867,0.19,0.196,0.2083,0.2298,0.2491,0.2687,0.3163,0.3598,0.3691,0.3598,0.3273,0.3213,0.3107,0.3309,0.3297,0.3285,0.324,0.3401,0.3401,0.267,0.2665,0.2662]},{"header":{"parameterUnit":"m.s-1","parameterCategory":2,"la1":30.2991,"la2":30.254,"lo1":-89.0895,"lo2":-89.0444,"dy":0.0017,"dx":0.0017,"nx":28,"ny":28,"refTime":"2025-12-04T09:00:00:Z","depth":"0","parameterNumber":3,"parameterNumberName":"V-component_of_CURRENTS"},"data":[0,0,0,0,0,0,0,0,0,0,0,0,0,0,0,0,0,0,0,0,0,0,0,0,0,0,0,0,0,0,0,0,0,0,0,0,0,0,0,0,0,0,0,0,0,0,0,0,0,0,0,0,0,0,0,0,0,0,-0.0626,-0.0627,0,-0.0655,-0.0655,-0.0656,-0.0692,-0.0692,-0.0692,-0.0693,-0.0758,-0.0759,-0.076,0,0,0,0,0,0,0,0,0,0,0,0,0,-0.0684,-0.0683,-0.0626,-0.0627,-0.0627,-0.0655,-0.0655,-0.0656,-0.0691,-0.0692,-0.0693,-0.0693,-0.0757,-0.0759,-0.076,0,0,0,0,0,0,0,0,0,0,0,0,0,-0.0681,-0.0682,-0.0626,-0.0647,-0.0649,-0.0655,-0.0655,-0.0656,-0.0691,-0.0692,-0.0693,-0.0693,-0.0757,-0.0759,-0.076,-0.0758,0,0,-0.0766,-0.0767,0,0,0,0,0,0,0,0,-0.0681,-0.0679,-0.0644,-0.0646,-0.0648,-0.0669,-0.07,-0.0692,-0.0691,-0.0677,-0.0693,-0.0694,-0.073,-0.0734,-0.0739,-0.0761,-0.0764,-0.0766,-0.0768,-0.0768,-0.0769,0,0,0,0,0,0,0,-0.0682,-0.0679,-0.0639,-0.0644,-0.0647,-0.0683,-0.0683,-0.0699,-0.0701,-0.0678,-0.068,-0.0681,-0.0732,-0.0737,-0.0741,-0.0765,-0.0766,-0.0768,-0.0769,-0.077,-0.0821,-0.0821,0,0,0,0,0,0,-0.067,-0.0678,-0.0638,-0.064,-0.0666,-0.0681,-0.0681,-0.0663,-0.07,-0.0705,-0.0681,-0.0683,-0.0734,-0.0739,-0.0744,-0.0763,-0.0768,-0.077,-0.0771,-0.082,-0.0821,-0.0821,0,0,0,0,0,0,-0.0671,-0.0666,-0.0637,-0.066,-0.0659,-0.0679,-0.0659,-0.0663,-0.0669,-0.0701,-0.0708,-0.0682,-0.0734,-0.0741,-0.0761,-0.0765,-0.0771,-0.0773,-0.082,-0.082,-0.0821,-0.0789,0,0,0,0,0,0,-0.0672,-0.0665,-0.0648,-0.0659,-0.0657,-0.0634,-0.0658,-0.0663,-0.0668,-0.0671,-0.0705,-0.0712,-0.0735,-0.0758,-0.0763,-0.0768,-0.0774,-0.082,-0.082,-0.0821,-0.079,-0.0788,-0.0787,0,0,0,0,0,-0.0674,-0.0637,-0.0646,-0.0642,-0.0632,-0.0633,-0.0636,-0.0654,-0.0667,-0.0664,-0.0693,-0.0711,-0.0764,-0.0759,-0.0765,-0.0771,-0.082,-0.082,-0.0821,-0.0791,-0.0789,-0.0787,0,0,0,0,0,0,-0.0638,-0.0638,-0.0648,-0.0609,-0.0622,-0.0639,-0.0631,-0.0649,-0.0668,-0.0672,-0.0708,-0.0717,-0.0739,-0.0756,-0.075,-0.0787,-0.0796,-0.0798,-0.0772,-0.077,-0.0768,-0.0767,-0.0776,0,0,0,0,0,-0.0625,-0.0605,-0.0617,-0.0586,-0.059,-0.0613,-0.0615,-0.063,-0.0648,-0.0657,-0.0683,-0.0714,-0.0744,-0.0757,-0.0782,-0.0795,-0.082,-0.0805,-0.0803,-0.0802,-0.0806,-0.0857,-0.0861,-0.0822,-0.0822,-0.0822,0,0,-0.06,-0.0598,-0.0585,-0.0579,-0.0589,-0.0589,-0.0616,-0.0613,-0.062,-0.066,-0.0675,-0.0707,-0.0746,-0.0768,-0.0779,-0.0783,-0.0821,-0.0802,-0.0801,-0.0806,-0.0858,-0.0862,-0.0866,-0.0822,-0.0822,-0.0822,0,0,-0.0548,-0.0542,-0.0518,-0.0529,-0.0542,-0.0561,-0.056,-0.058,-0.0597,-0.0614,-0.0653,-0.0689,-0.072,-0.0758,-0.078,-0.0784,-0.0812,-0.0789,-0.078,-0.083,-0.0834,-0.0837,-0.0849,-0.0855,-0.0788,-0.0788,-0.0788,0,-0.0519,-0.0491,-0.0511,-0.0502,-0.0505,-0.0547,-0.0533,-0.0557,-0.0584,-0.06,-0.0613,-0.0687,-0.072,-0.0764,-0.0771,-0.0781,-0.0801,-0.0782,-0.0828,-0.0832,-0.0837,-0.0849,-0.0855,-0.0786,-0.0786,-0.0786,-0.0787,0,-0.0464,-0.0448,-0.0434,-0.044,-0.0449,-0.044,-0.048,-0.0497,-0.0526,-0.0558,-0.0604,-0.0659,-0.0703,-0.0724,-0.0751,-0.0799,-0.0798,-0.082,-0.0831,-0.0839,-0.085,-0.0857,-0.0784,-0.0785,-0.0785,-0.0785,0,0,-0.0374,-0.0391,-0.0386,-0.0384,-0.0416,-0.0412,-0.0435,-0.0464,-0.0472,-0.053,-0.0548,-0.0629,-0.0667,-0.0696,-0.0741,-0.0793,-0.0837,-0.0817,-0.082,-0.0825,-0.0921,-0.0855,-0.0856,-0.0869,-0.0871,-0.0872,-0.0908,0,-0.0323,-0.0294,-0.0321,-0.0299,-0.0288,-0.0341,-0.0352,-0.0392,-0.0435,-0.0465,-0.0554,-0.0584,-0.0654,-0.0668,-0.0739,-0.0809,-0.0858,-0.0823,-0.0917,-0.0919,-0.0857,-0.0863,-0.0811,-0.0834,-0.0915,-0.0916,-0.0917,0,-0.0259,-0.0251,-0.0219,-0.0229,-0.0228,-0.0226,-0.0253,-0.0272,-0.0344,-0.0374,-0.045,-0.051,-0.0601,-0.0649,-0.0798,-0.0772,-0.0846,-0.0907,-0.091,-0.0867,-0.0866,-0.0845,-0.0844,-0.1022,-0.0928,-0.0927,-0.0926,0,-0.0186,-0.0177,-0.0149,-0.0152,-0.0173,-0.0169,-0.0186,-0.0241,-0.0241,-0.0318,-0.0315,-0.0452,-0.0477,-0.0629,-0.0754,-0.0781,-0.0896,-0.0946,-0.0958,-0.0953,-0.0936,-0.0926,-0.1117,-0.1052,-0.1052,-0.1052,-0.1052,0,-0.0119,-0.0093,-0.011,-0.0093,-0.0054,-0.0099,-0.0071,-0.011,-0.0143,-0.0121,-0.0259,-0.0248,-0.0474,-0.0563,-0.0721,-0.0838,-0.0872,-0.0954,-0.0964,-0.0918,-0.0907,-0.1083,-0.1208,-0.1053,-0.1053,-0.1053,-0.1053,0,-0.004,-0.0054,-0.0017,-0.0023,-0.0016,0.001,0.002,0.0038,-0.0005,0.0022,0.0012,-0.0087,-0.0185,-0.0392,-0.0592,-0.0742,-0.0982,-0.0922,-0.0828,-0.0827,-0.1015,-0.1138,-0.1336,-0.1422,-0.0962,-0.0961,-0.096,0,0.0003,0.003,0.0049,0.0081,0.0085,0.0116,0.0145,0.0112,0.0144,0.0143,0.0179,0.0106,0.01,-0.0162,-0.0432,-0.0676,-0.0894,-0.081,-0.0869,-0.1015,-0.1162,-0.1257,-0.1325,-0.0832,-0.083,-0.0828,-0.0827,0,0.0087,0.0092,0.0119,0.0185,0.0226,0.0276,0.0319,0.0377,0.0361,0.0419,0.0498,0.0502,0.0278,0.0083,-0.0252,-0.0453,-0.0936,-0.078,-0.0984,-0.1116,-0.1185,-0.1273,-0.0799,-0.0811,-0.0813,-0.0814,-0.0815,-0.0815,0.0152,0.0191,0.023,0.0298,0.0352,0.0444,0.0521,0.0596,0.0707,0.0827,0.0788,0.0871,0.0519,0.0097,-0.0217,-0.0736,-0.0798,-0.0916,-0.1061,-0.1148,-0.1221,-0.0681,-0.0671,-0.0672,-0.0673,-0.0673,-0.0674,0,0.0236,0.0276,0.0343,0.0426,0.0517,0.052,0.0648,0.0754,0.0944,0.1073,0.1177,0.1113,0.0668,0.0159,-0.0529,-0.0938,-0.1146,-0.1199,-0.1369,-0.1433,-0.0989,-0.0971,-0.0962,-0.0962,-0.0962,-0.0962,-0.0961,-0.0961,0.0282,0.0363,0.0397,0.056,0.063,0.0774,0.0868,0.1042,0.1183,0.1431,0.154,0.1568,0.1228,-0.0126,-0.1042,-0.129,-0.1655,-0.171,-0.1906,-0.1646,-0.1632,-0.162,-0.1633,-0.1763,-0.1764,-0.2276,-0.2281,-0.2285]}],[{"header":{"parameterUnit":"m.s-1","parameterCategory":2,"la1":30.2991,"la2":30.254,"lo1":-89.0895,"lo2":-89.0444,"dy":0.0017,"dx":0.0017,"nx":28,"ny":28,"refTime":"2025-12-04T09:00:00:Z","depth":"2","parameterNumber":2,"parameterNumberName":"U-component_of_CURRENTS"},"data":[0,0,0,0,0,0,0,0,0,0,0,0,0,0,0,0,0,0,0,0,0,0,0,0,0,0,0,0,0,0,0,0,0,0,0,0,0,0,0,0,0,0,0,0,0,0,0,0,0,0,0,0,0,0,0,0,0,0,0.1918,0.1918,0,0.191,0.191,0.1911,0.194,0.194,0.194,0.1939,0.1952,0.1953,0.1953,0,0,0,0,0,0,0,0,0,0,0,0,0,0.1857,0.186,0.1919,0.1918,0.1916,0.1909,0.191,0.1911,0.194,0.194,0.194,0.1939,0.1952,0.1953,0.1953,0,0,0,0,0,0,0,0,0,0,0,0,0,0.188,0.1861,0.1919,0.1922,0.1921,0.1909,0.191,0.1911,0.194,0.194,0.1939,0.1939,0.1952,0.1953,0.1953,0.196,0,0,0.1955,0.1955,0,0,0,0,0,0,0,0,0.1879,0.1884,0.1923,0.1922,0.1921,0.1916,0.1893,0.1925,0.194,0.1944,0.1939,0.1939,0.1935,0.1937,0.1951,0.1961,0.1961,0.1955,0.1956,0.1956,0.1956,0,0,0,0,0,0,0,0.1877,0.1883,0.1926,0.1921,0.192,0.1887,0.1893,0.1899,0.1949,0.1944,0.1943,0.1925,0.1937,0.195,0.1951,0.1962,0.1955,0.1956,0.1956,0.1956,0.2015,0.2016,0,0,0,0,0,0,0.1863,0.1883,0.1926,0.1924,0.1887,0.1888,0.1895,0.1927,0.1949,0.1949,0.1925,0.1926,0.1949,0.195,0.1952,0.2006,0.1956,0.1957,0.1957,0.2014,0.2015,0.2016,0,0,0,0,0,0,0.1863,0.187,0.1926,0.1891,0.1895,0.1889,0.1925,0.1926,0.1944,0.1933,0.1935,0.1941,0.1949,0.1951,0.1967,0.2005,0.1957,0.1957,0.2012,0.2014,0.2016,0.2085,0,0,0,0,0,0,0.1862,0.1871,0.1888,0.1893,0.1896,0.1927,0.1924,0.1926,0.1928,0.193,0.1946,0.1947,0.1949,0.1966,0.1968,0.2005,0.1958,0.2011,0.2013,0.2015,0.2081,0.2089,0.2096,0,0,0,0,0,0.1861,0.1865,0.189,0.1894,0.1923,0.1926,0.1927,0.1927,0.1928,0.1943,0.1954,0.1947,0.1982,0.1968,0.1969,0.2007,0.201,0.2012,0.2015,0.2078,0.2087,0.2095,0,0,0,0,0,0,0.1837,0.1868,0.1895,0.191,0.1926,0.1927,0.1922,0.1931,0.1953,0.1955,0.1957,0.1959,0.1987,0.1983,0.1968,0.2029,0.1996,0.1999,0.2044,0.2053,0.206,0.2057,0.1958,0,0,0,0,0,0.1844,0.187,0.1891,0.1907,0.1915,0.1929,0.1927,0.1937,0.1946,0.1957,0.197,0.1984,0.1999,0.2014,0.2021,0.2054,0.2061,0.208,0.2087,0.2093,0.2092,0.2133,0.2144,0.2025,0.2025,0.2025,0,0,0.1841,0.1855,0.1873,0.1904,0.1918,0.1938,0.1931,0.1937,0.1964,0.1953,0.1996,0.2002,0.2009,0.2048,0.2062,0.2052,0.2135,0.2096,0.2102,0.2097,0.2137,0.2148,0.2159,0.2027,0.2026,0.2026,0,0,0.183,0.1866,0.1886,0.1906,0.1921,0.1934,0.1939,0.1962,0.1987,0.2022,0.2023,0.2051,0.2078,0.21,0.211,0.2158,0.2163,0.2165,0.2212,0.2253,0.2263,0.2272,0.2318,0.233,0.218,0.218,0.218,0,0.1816,0.1862,0.1886,0.1907,0.192,0.1937,0.1962,0.1989,0.2018,0.2048,0.2042,0.2102,0.2105,0.2159,0.2179,0.2177,0.2199,0.2181,0.2263,0.2272,0.228,0.2324,0.2337,0.2183,0.2183,0.2183,0.2182,0,0.1833,0.1869,0.1874,0.1928,0.1949,0.1965,0.2005,0.2042,0.2069,0.2101,0.216,0.2174,0.2212,0.2225,0.2217,0.2283,0.2281,0.226,0.2243,0.2297,0.234,0.2352,0.2189,0.2187,0.2186,0.2185,0,0,0.1798,0.1873,0.1875,0.1913,0.1964,0.1979,0.2038,0.2097,0.2142,0.2186,0.2249,0.2285,0.2299,0.231,0.2315,0.2352,0.2434,0.2336,0.2337,0.2385,0.2537,0.2524,0.2536,0.2432,0.2434,0.2436,0.2553,0,0.1802,0.1844,0.1888,0.194,0.197,0.2024,0.2076,0.2136,0.2192,0.2259,0.2298,0.2349,0.2332,0.2358,0.2395,0.2422,0.2466,0.2404,0.2474,0.2476,0.2461,0.2549,0.2375,0.2463,0.2564,0.2566,0.2568,0,0.1803,0.1834,0.1883,0.1965,0.1984,0.2019,0.2114,0.2166,0.2266,0.2315,0.2384,0.2415,0.2488,0.245,0.2545,0.2511,0.2528,0.2542,0.2547,0.2514,0.2485,0.2421,0.2481,0.2588,0.2586,0.2585,0.2583,0,0.1759,0.1829,0.1867,0.1895,0.1987,0.2028,0.2078,0.2181,0.2243,0.2354,0.2418,0.2497,0.2549,0.2589,0.2628,0.2599,0.2718,0.2683,0.2689,0.2689,0.2542,0.2525,0.2739,0.2739,0.2739,0.2739,0.2738,0,0.1741,0.177,0.1849,0.1872,0.1924,0.2003,0.2077,0.2149,0.2262,0.2334,0.2438,0.2506,0.2585,0.2661,0.2672,0.2736,0.2764,0.2718,0.2725,0.2564,0.2548,0.2641,0.2628,0.2743,0.2742,0.2741,0.274,0,0.1688,0.1741,0.1786,0.1877,0.1905,0.1943,0.206,0.2116,0.2241,0.2343,0.2385,0.2541,0.2653,0.2729,0.2807,0.2804,0.285,0.2851,0.2664,0.2647,0.2783,0.2773,0.2896,0.2896,0.2897,0.2897,0.2898,0,0.1663,0.1684,0.1767,0.1792,0.1832,0.1901,0.1948,0.2079,0.2149,0.2347,0.2389,0.2554,0.2654,0.2808,0.2837,0.2905,0.2887,0.2753,0.266,0.2809,0.2804,0.2792,0.2781,0.2502,0.2499,0.2496,0.2495,0,0.1617,0.1646,0.1682,0.1733,0.1779,0.1837,0.192,0.197,0.2125,0.2235,0.2378,0.2483,0.267,0.2686,0.2791,0.2782,0.2735,0.2709,0.2925,0.2489,0.2447,0.2438,0.2438,0.2474,0.2476,0.2477,0.2478,0.2479,0.1568,0.1577,0.1624,0.1669,0.1717,0.1761,0.1786,0.189,0.1988,0.2133,0.2268,0.2383,0.249,0.2587,0.2547,0.2529,0.2699,0.2578,0.2582,0.2588,0.2522,0.2483,0.2505,0.2507,0.2509,0.251,0.2512,0,0.1505,0.1529,0.1562,0.1608,0.1625,0.1687,0.1757,0.1774,0.185,0.2008,0.2131,0.2078,0.2162,0.2244,0.222,0.2268,0.2196,0.2156,0.2038,0.2065,0.2088,0.1988,0.1834,0.1831,0.1828,0.1825,0,0,0.1472,0.1475,0.1497,0.1505,0.1539,0.1544,0.1566,0.1608,0.17,0.1763,0.1832,0.2057,0.2204,0.1971,0.1988,0.1899,0.1941,0.183,0.2391,0.2281,0.2298,0.2375,0.2261,0,0,0,0,0]},{"header":{"parameterUnit":"m.s-1","parameterCategory":2,"la1":30.2991,"la2":30.254,"lo1":-89.0895,"lo2":-89.0444,"dy":0.0017,"dx":0.0017,"nx":28,"ny":28,"refTime":"2025-12-04T09:00:00:Z","depth":"2","parameterNumber":3,"parameterNumberName":"V-component_of_CURRENTS"},"data":[0,0,0,0,0,0,0,0,0,0,0,0,0,0,0,0,0,0,0,0,0,0,0,0,0,0,0,0,0,0,0,0,0,0,0,0,0,0,0,0,0,0,0,0,0,0,0,0,0,0,0,0,0,0,0,0,0,0,-0.0102,-0.0101,0,-0.0154,-0.0155,-0.0157,-0.0257,-0.0258,-0.0259,-0.0259,-0.0363,-0.0365,-0.0368,0,0,0,0,0,0,0,0,0,0,0,0,0,-0.0033,-0.0035,-0.0102,-0.0101,-0.0101,-0.0153,-0.0155,-0.0157,-0.0257,-0.0258,-0.0259,-0.026,-0.0363,-0.0365,-0.0368,0,0,0,0,0,0,0,0,0,0,0,0,0,-0.0084,-0.0036,-0.0102,-0.0147,-0.0151,-0.0153,-0.0155,-0.0158,-0.0257,-0.0258,-0.0259,-0.026,-0.0362,-0.0365,-0.0368,-0.0364,0,0,-0.0377,-0.0379,0,0,0,0,0,0,0,0,-0.0081,-0.0089,-0.0141,-0.0144,-0.0148,-0.0189,-0.0168,-0.0225,-0.0257,-0.023,-0.0259,-0.0261,-0.03,-0.0309,-0.0334,-0.0369,-0.0374,-0.0378,-0.038,-0.0381,-0.0382,0,0,0,0,0,0,0,-0.0078,-0.0086,-0.0136,-0.014,-0.0144,-0.0144,-0.0155,-0.018,-0.027,-0.0233,-0.0237,-0.0221,-0.0305,-0.0331,-0.0337,-0.0375,-0.0378,-0.038,-0.0382,-0.0384,-0.0451,-0.0451,0,0,0,0,0,0,-0.0047,-0.0083,-0.0134,-0.0136,-0.0102,-0.0144,-0.0156,-0.0185,-0.0268,-0.0278,-0.022,-0.0226,-0.0325,-0.0333,-0.0341,-0.0387,-0.0381,-0.0384,-0.0386,-0.0451,-0.0451,-0.0451,0,0,0,0,0,0,-0.0046,-0.0053,-0.0132,-0.0097,-0.0106,-0.0143,-0.0175,-0.0185,-0.0217,-0.0256,-0.027,-0.024,-0.0326,-0.0336,-0.0364,-0.039,-0.0385,-0.0388,-0.0451,-0.0451,-0.0451,-0.045,0,0,0,0,0,0,-0.0045,-0.0054,-0.0064,-0.0097,-0.0106,-0.0133,-0.0173,-0.0185,-0.0198,-0.0207,-0.0276,-0.0287,-0.0328,-0.0359,-0.0367,-0.0394,-0.039,-0.0451,-0.0451,-0.0451,-0.045,-0.045,-0.045,0,0,0,0,0,-0.0043,-0.0035,-0.0066,-0.007,-0.0121,-0.0131,-0.0138,-0.0175,-0.0198,-0.021,-0.0254,-0.0285,-0.0365,-0.0361,-0.0371,-0.04,-0.0451,-0.0451,-0.0451,-0.045,-0.045,-0.045,0,0,0,0,0,0,-0.0009,-0.0045,-0.0078,-0.0085,-0.0108,-0.0143,-0.0142,-0.0169,-0.0215,-0.0225,-0.0279,-0.0292,-0.0322,-0.0351,-0.0346,-0.0416,-0.0415,-0.0417,-0.0412,-0.0412,-0.0412,-0.0382,-0.0393,0,0,0,0,0,-0.0004,-0.0019,-0.0051,-0.006,-0.0068,-0.011,-0.0116,-0.0144,-0.0177,-0.0201,-0.0252,-0.0297,-0.0327,-0.036,-0.0385,-0.0425,-0.0428,-0.0449,-0.0449,-0.0449,-0.043,-0.0451,-0.0451,-0.045,-0.045,-0.045,0,0,0.0002,-0.0009,-0.0025,-0.0052,-0.0079,-0.0083,-0.0122,-0.0129,-0.014,-0.0201,-0.0243,-0.0286,-0.0329,-0.0373,-0.0392,-0.0407,-0.0452,-0.0449,-0.0448,-0.0429,-0.0451,-0.0451,-0.0451,-0.045,-0.045,-0.045,0,0,0.0033,-0.0003,-0.0005,-0.0017,-0.0032,-0.0053,-0.0052,-0.0098,-0.0132,-0.0163,-0.0211,-0.0259,-0.032,-0.0366,-0.0391,-0.0397,-0.0432,-0.0423,-0.0425,-0.0447,-0.0447,-0.0447,-0.0456,-0.0457,-0.0446,-0.0446,-0.0446,0,0.0051,0.0034,-0.0002,0.0006,0.0005,-0.0037,-0.0035,-0.0063,-0.0116,-0.0143,-0.017,-0.0264,-0.0309,-0.0358,-0.0379,-0.0398,-0.0414,-0.0429,-0.0447,-0.0447,-0.0447,-0.0456,-0.0457,-0.0446,-0.0446,-0.0446,-0.0446,0,0.0074,0.0066,0.0075,0.0055,0.0044,0.005,0.0013,-0.0011,-0.0053,-0.0099,-0.0155,-0.0223,-0.0286,-0.0322,-0.036,-0.0401,-0.0412,-0.0428,-0.0448,-0.0447,-0.0457,-0.0458,-0.0446,-0.0446,-0.0446,-0.0446,0,0,0.0107,0.0092,0.0096,0.0095,0.0072,0.0072,0.0058,0.0024,0.0016,-0.0063,-0.0085,-0.0182,-0.0243,-0.0273,-0.034,-0.0381,-0.0414,-0.0421,-0.0422,-0.0429,-0.0461,-0.0467,-0.0469,-0.0448,-0.0448,-0.0448,-0.0469,0,0.0138,0.0167,0.0142,0.0161,0.0167,0.0128,0.0128,0.009,0.0035,0.0005,-0.0081,-0.0124,-0.0218,-0.0256,-0.0315,-0.0383,-0.0416,-0.0406,-0.0459,-0.046,-0.0466,-0.047,-0.0454,-0.0471,-0.047,-0.047,-0.047,0,0.0166,0.0187,0.0207,0.0217,0.0215,0.0219,0.0201,0.0188,0.0133,0.009,0.0007,-0.0056,-0.0148,-0.0196,-0.0329,-0.0327,-0.0387,-0.0434,-0.0436,-0.0437,-0.0468,-0.0471,-0.0473,-0.0472,-0.0472,-0.0472,-0.0472,0,0.0212,0.0233,0.0254,0.0256,0.0258,0.0257,0.0253,0.0203,0.0204,0.0136,0.013,0.0003,-0.003,-0.0147,-0.0283,-0.0313,-0.0384,-0.0433,-0.0482,-0.0483,-0.0472,-0.0472,-0.0476,-0.0476,-0.0476,-0.0476,-0.0476,0,0.0258,0.028,0.0282,0.0297,0.0337,0.0306,0.0324,0.03,0.0286,0.0299,0.0168,0.0171,-0.0018,-0.0095,-0.0235,-0.0364,-0.0355,-0.0467,-0.0488,-0.0472,-0.0471,-0.0472,-0.0472,-0.0476,-0.0476,-0.0476,-0.0476,0,0.0297,0.0298,0.0331,0.0347,0.0356,0.0377,0.0397,0.0417,0.0381,0.0405,0.0396,0.0304,0.018,0.0009,-0.0148,-0.028,-0.0408,-0.0436,-0.04,-0.0416,-0.0506,-0.0505,-0.0521,-0.0521,-0.0522,-0.0522,-0.0522,0,0.0318,0.0338,0.0373,0.0403,0.0409,0.0439,0.0476,0.0466,0.0495,0.049,0.053,0.0435,0.038,0.0138,-0.0107,-0.0332,-0.036,-0.0442,-0.0499,-0.0492,-0.0511,-0.0509,-0.0508,-0.0487,-0.0487,-0.0487,-0.0487,0,0.0363,0.0369,0.0401,0.0465,0.0506,0.0561,0.0608,0.0661,0.0665,0.0693,0.073,0.0695,0.0458,0.0228,-0.0073,-0.0235,-0.0426,-0.0448,-0.044,-0.0478,-0.0462,-0.048,-0.0479,-0.0486,-0.0486,-0.0486,-0.0486,-0.0486,0.0397,0.043,0.0472,0.0533,0.0591,0.0676,0.0737,0.0806,0.0884,0.0945,0.0903,0.0864,0.0591,0.0201,-0.0086,-0.0396,-0.0398,-0.0509,-0.0508,-0.0508,-0.05,-0.0486,-0.0512,-0.0512,-0.0513,-0.0513,-0.0513,0,0.0442,0.048,0.0541,0.0617,0.0695,0.0715,0.0832,0.0903,0.1017,0.1069,0.1093,0.0858,0.0588,0.0272,-0.0184,-0.0457,-0.0494,-0.0544,-0.053,-0.0529,-0.0528,-0.0522,-0.0539,-0.054,-0.0541,-0.0541,0,0,0.0467,0.0533,0.0565,0.0694,0.0756,0.0875,0.0952,0.1061,0.1132,0.1198,0.1186,0.1108,0.0712,0.0389,-0.0001,-0.0265,-0.0333,-0.0323,-0.0274,-0.0211,-0.0207,-0.0484,-0.0469,0,0,0,0,0]}],[{"header":{"parameterUnit":"m.s-1","parameterCategory":2,"la1":30.2991,"la2":30.254,"lo1":-89.0895,"lo2":-89.0444,"dy":0.0017,"dx":0.0017,"nx":28,"ny":28,"refTime":"2025-12-04T09:00:00:Z","depth":"4","parameterNumber":2,"parameterNumberName":"U-component_of_CURRENTS"},"data":[0,0,0,0,0,0,0,0,0,0,0,0,0,0,0,0,0,0,0,0,0,0,0,0,0,0,0,0,0,0,0,0,0,0,0,0,0,0,0,0,0,0,0,0,0,0,0,0,0,0,0,0,0,0,0,0,0,0,0.1117,0.1118,0,0.1188,0.1188,0.1189,0.1242,0.1243,0.1244,0.1244,0.1319,0.132,0.1321,0,0,0,0,0,0,0,0,0,0,0,0,0,0.1018,0.102,0.1117,0.1118,0.1119,0.1188,0.1189,0.1189,0.1242,0.1243,0.1244,0.1245,0.1318,0.132,0.1322,0,0,0,0,0,0,0,0,0,0,0,0,0,0.107,0.102,0.1117,0.1155,0.1159,0.1188,0.1189,0.119,0.1242,0.1243,0.1244,0.1245,0.1318,0.132,0.1322,0.1315,0,0,0.1328,0.1329,0,0,0,0,0,0,0,0,0.1067,0.1074,0.1148,0.1152,0.1157,0.1209,0.1181,0.1232,0.1242,0.1209,0.1244,0.1245,0.1283,0.1288,0.1296,0.1318,0.1321,0.1328,0.1329,0.133,0.1331,0,0,0,0,0,0,0,0.1064,0.1071,0.1143,0.1149,0.1155,0.1166,0.1174,0.1191,0.1238,0.1212,0.1216,0.1227,0.1285,0.1294,0.1298,0.1323,0.1328,0.133,0.1331,0.1332,0.1432,0.1433,0,0,0,0,0,0,0.1058,0.1068,0.1141,0.1145,0.1116,0.1167,0.1176,0.119,0.1238,0.1247,0.1226,0.1229,0.129,0.1296,0.1301,0.1376,0.133,0.1332,0.1333,0.143,0.1432,0.1434,0,0,0,0,0,0,0.1056,0.1064,0.1138,0.1109,0.112,0.1168,0.1182,0.1191,0.1227,0.1249,0.1258,0.1257,0.1291,0.1298,0.1343,0.1376,0.1333,0.1335,0.1429,0.1431,0.1433,0.1474,0,0,0,0,0,0,0.1053,0.1063,0.1082,0.1109,0.1121,0.1174,0.1182,0.1191,0.1231,0.1237,0.1278,0.1284,0.1292,0.134,0.1345,0.1378,0.1337,0.1427,0.143,0.1432,0.1471,0.1477,0.1483,0,0,0,0,0,0.1049,0.107,0.1083,0.1093,0.1143,0.1176,0.1183,0.1218,0.1232,0.1253,0.1283,0.1284,0.1361,0.1343,0.1349,0.1383,0.1426,0.1429,0.1432,0.1468,0.1476,0.1482,0,0,0,0,0,0,0.1041,0.1078,0.1093,0.1126,0.1158,0.1186,0.1214,0.1231,0.127,0.1284,0.1299,0.1308,0.1361,0.1365,0.1344,0.142,0.1395,0.1399,0.142,0.1428,0.1434,0.1435,0.1338,0,0,0,0,0,0.1046,0.1073,0.1105,0.1135,0.1154,0.1187,0.1209,0.1232,0.1264,0.1284,0.1312,0.1343,0.1373,0.1395,0.142,0.1457,0.1467,0.1485,0.149,0.1495,0.1502,0.1536,0.1545,0.1444,0.1444,0.1444,0,0,0.105,0.1077,0.1092,0.1136,0.1165,0.1194,0.1204,0.1246,0.1275,0.1284,0.1341,0.1366,0.1388,0.1435,0.1459,0.1446,0.1533,0.1499,0.1503,0.1507,0.154,0.155,0.1559,0.1446,0.1446,0.1446,0,0,0.1065,0.1099,0.1123,0.115,0.1199,0.1219,0.1236,0.1279,0.1309,0.1355,0.1374,0.1419,0.1462,0.1488,0.1503,0.1555,0.1562,0.1569,0.1603,0.1636,0.1645,0.1652,0.1689,0.1699,0.1572,0.1573,0.1573,0,0.1069,0.1105,0.1136,0.1165,0.1193,0.1232,0.1261,0.1293,0.1347,0.1376,0.1383,0.1468,0.1486,0.1544,0.1566,0.1569,0.1591,0.1572,0.1644,0.1651,0.1658,0.1694,0.1705,0.1575,0.1575,0.1574,0.1574,0,0.1092,0.113,0.115,0.1198,0.1231,0.1267,0.1309,0.1353,0.1391,0.1422,0.1496,0.1527,0.1579,0.1594,0.1597,0.1662,0.1664,0.1645,0.1623,0.1671,0.1705,0.1716,0.1578,0.1577,0.1577,0.1576,0,0,0.1076,0.115,0.116,0.119,0.1254,0.1281,0.1337,0.1396,0.1441,0.1498,0.1556,0.1615,0.1644,0.1663,0.1681,0.1711,0.178,0.1705,0.1706,0.1738,0.1867,0.1779,0.1781,0.1778,0.178,0.1781,0.1876,0,0.1088,0.1143,0.118,0.1239,0.127,0.1324,0.137,0.143,0.1484,0.1549,0.16,0.1661,0.1666,0.1702,0.1737,0.1771,0.1809,0.1757,0.182,0.1822,0.1733,0.179,0.1787,0.1884,0.1886,0.1888,0.1889,0,0.1094,0.1134,0.1189,0.1264,0.1284,0.1326,0.1414,0.1463,0.1553,0.1594,0.1669,0.171,0.1788,0.177,0.1866,0.1837,0.1862,0.1878,0.1882,0.1789,0.1752,0.1824,0.1908,0.1907,0.1905,0.1904,0.1903,0,0.1062,0.114,0.1186,0.1211,0.1298,0.1341,0.1396,0.1484,0.1537,0.1635,0.1686,0.1771,0.1836,0.1877,0.1935,0.1908,0.2026,0.1985,0.1932,0.1927,0.1959,0.195,0.2047,0.2047,0.2047,0.2047,0.2046,0,0.105,0.109,0.118,0.1204,0.1266,0.1335,0.141,0.1472,0.157,0.1637,0.1717,0.1783,0.1868,0.1947,0.1966,0.1995,0.2059,0.1953,0.1947,0.1976,0.1968,0.1967,0.1957,0.205,0.205,0.2049,0.2048,0,0.1004,0.1064,0.112,0.1218,0.1252,0.13,0.1413,0.1463,0.1565,0.1657,0.1695,0.1824,0.1923,0.1999,0.2081,0.2039,0.2064,0.2057,0.211,0.2104,0.1933,0.1924,0.1992,0.199,0.1988,0.1986,0.1985,0,0.0983,0.1009,0.1116,0.1152,0.1201,0.1281,0.1332,0.1444,0.1498,0.1671,0.1706,0.1854,0.1927,0.1982,0.2054,0.2097,0.2073,0.2069,0.197,0.1941,0.1929,0.1923,0.1917,0.1982,0.1981,0.1981,0.198,0,0.094,0.0988,0.1034,0.1107,0.1169,0.1228,0.1315,0.1345,0.1481,0.1588,0.1685,0.1753,0.1869,0.1932,0.1993,0.201,0.2053,0.2047,0.205,0.1957,0.1929,0.1918,0.1914,0.1974,0.1975,0.1975,0.1976,0,0.0908,0.0928,0.0997,0.1053,0.1124,0.1163,0.1214,0.1289,0.136,0.1544,0.1578,0.1733,0.1857,0.1891,0.1943,0.1962,0.1921,0.1841,0.1853,0.1862,0.1774,0.1717,0.1705,0,0,0,0,0,0.0872,0.0891,0.0938,0.0995,0.106,0.1104,0.1198,0.1252,0.1381,0.1415,0.1493,0.1592,0.1687,0.1765,0.176,0.1883,0.1923,0.1868,0.1835,0.1936,0.1944,0.1852,0,0,0,0,0,0,0.0849,0.0892,0.0913,0.0935,0.0963,0.1025,0.1082,0.1169,0.1191,0.1331,0.1392,0.1501,0.1614,0.1681,0.1733,0.1756,0.1705,0.1962,0.1959,0.1932,0.1939,0.1945,0.1854,0,0,0,0,0]},{"header":{"parameterUnit":"m.s-1","parameterCategory":2,"la1":30.2991,"la2":30.254,"lo1":-89.0895,"lo2":-89.0444,"dy":0.0017,"dx":0.0017,"nx":28,"ny":28,"refTime":"2025-12-04T09:00:00:Z","depth":"4","parameterNumber":3,"parameterNumberName":"V-component_of_CURRENTS"},"data":[0,0,0,0,0,0,0,0,0,0,0,0,0,0,0,0,0,0,0,0,0,0,0,0,0,0,0,0,0,0,0,0,0,0,0,0,0,0,0,0,0,0,0,0,0,0,0,0,0,0,0,0,0,0,0,0,0,0,0.0161,0.016,0,0.0099,0.0098,0.0098,0.0062,0.0061,0.0061,0.0061,-0.0025,-0.0027,-0.0029,0,0,0,0,0,0,0,0,0,0,0,0,0,0.0222,0.0221,0.0161,0.016,0.0159,0.0099,0.0098,0.0097,0.0062,0.0061,0.0061,0.0061,-0.0024,-0.0026,-0.0029,0,0,0,0,0,0,0,0,0,0,0,0,0,0.0182,0.0221,0.0161,0.0133,0.013,0.0099,0.0098,0.0097,0.0062,0.0061,0.0061,0.0061,-0.0023,-0.0026,-0.0029,-0.004,0,0,-0.0038,-0.004,0,0,0,0,0,0,0,0,0.0185,0.018,0.0138,0.0135,0.0131,0.0086,0.0088,0.005,0.0062,0.0089,0.0061,0.006,0.001,0.0004,-0.0005,-0.0044,-0.0048,-0.0039,-0.0041,-0.0042,-0.0043,0,0,0,0,0,0,0,0.0188,0.0183,0.0138,0.0137,0.0133,0.0114,0.0108,0.0081,0.0053,0.0087,0.0084,0.0074,0.0008,-0.0001,-0.0007,-0.0049,-0.0039,-0.0041,-0.0043,-0.0044,-0.01,-0.01,0,0,0,0,0,0,0.0194,0.0185,0.014,0.0136,0.0156,0.0113,0.0107,0.0102,0.0054,0.0046,0.0075,0.0073,0.0004,-0.0003,-0.001,-0.0015,-0.0042,-0.0045,-0.0046,-0.01,-0.01,-0.01,0,0,0,0,0,0,0.0196,0.0191,0.0142,0.0158,0.015,0.0113,0.0107,0.0101,0.0089,0.0045,0.0037,0.0069,0.0003,-0.0006,-0.0031,-0.0019,-0.0046,-0.0049,-0.0101,-0.01,-0.01,-0.0031,0,0,0,0,0,0,0.0198,0.0192,0.0191,0.0158,0.0149,0.0127,0.0107,0.01,0.0084,0.0081,0.0037,0.0029,0.0002,-0.0026,-0.0034,-0.0023,-0.0051,-0.0101,-0.0101,-0.01,-0.0033,-0.0028,-0.0023,0,0,0,0,0,0.02,0.0199,0.0192,0.0186,0.0149,0.0127,0.0122,0.0094,0.0084,0.0082,0.0054,0.003,-0.0028,-0.0028,-0.0038,-0.0028,-0.0102,-0.0101,-0.01,-0.0036,-0.0029,-0.0023,0,0,0,0,0,0,0.022,0.0194,0.0185,0.0175,0.0155,0.0121,0.0114,0.0097,0.0074,0.0071,0.0032,0.0022,0.0003,-0.0023,-0.0022,-0.0042,-0.0068,-0.0069,-0.0016,-0.001,-0.0005,0.001,-0.0054,0,0,0,0,0,0.0226,0.0222,0.0193,0.0186,0.0178,0.0148,0.0136,0.0119,0.0093,0.0083,0.0054,0.0024,-0.0,-0.0013,-0.0041,-0.0052,-0.0081,-0.0051,-0.0046,-0.0041,-0.0036,-0.0063,-0.0059,-0.0097,-0.0097,-0.0097,0,0,0.0232,0.0217,0.0214,0.0191,0.0174,0.017,0.014,0.0125,0.0127,0.0077,0.0069,0.0037,-0.0001,-0.0012,-0.0022,-0.0031,-0.0048,-0.004,-0.0036,-0.0033,-0.0062,-0.0058,-0.0054,-0.0096,-0.0097,-0.0097,0,0,0.0245,0.023,0.0233,0.0222,0.0199,0.0184,0.0182,0.0153,0.0145,0.013,0.0099,0.0078,0.0037,0.002,0.0005,0.0021,-0.0023,0.0009,0.0051,0.0025,0.0029,0.0031,-0.0007,-0.0009,0.0016,0.0016,0.0016,0,0.0252,0.0252,0.023,0.0231,0.0227,0.0195,0.0201,0.019,0.0158,0.0155,0.0136,0.0087,0.0056,0.0048,0.0055,0.0034,0.0005,0.0033,0.0033,0.0035,0.0036,-0.0004,-0.0006,0.002,0.0019,0.0019,0.0019,0,0.0267,0.027,0.0271,0.0268,0.0262,0.0259,0.0244,0.024,0.0224,0.0208,0.0191,0.015,0.0122,0.0112,0.0088,0.0086,0.0057,0.004,0.0021,0.0044,0.0,-0.0003,0.0025,0.0023,0.0022,0.0022,0,0,0.0274,0.0281,0.0282,0.0293,0.0282,0.0279,0.029,0.0286,0.0293,0.0263,0.0266,0.0231,0.0204,0.0185,0.0153,0.0135,0.0118,0.0098,0.0095,0.0067,0.0049,0.0012,0.0003,0.0101,0.0101,0.0101,0.0013,0,0.0291,0.0311,0.0309,0.0332,0.0342,0.033,0.0345,0.034,0.0326,0.0321,0.0286,0.0269,0.0234,0.0221,0.0199,0.0135,0.0111,0.0142,0.0025,0.0021,-0.0009,-0.0001,0.01,0.001,0.0009,0.0008,0.0008,0,0.0303,0.0318,0.0346,0.0373,0.0376,0.0387,0.0403,0.0411,0.0401,0.0388,0.0367,0.0332,0.0303,0.0269,0.018,0.0199,0.0133,0.0083,0.0078,0.0018,-0.0023,-0.0019,-0.0,0.0,0.0001,0.0002,0.0002,0,0.0316,0.0342,0.037,0.0376,0.04,0.0416,0.0428,0.0429,0.0445,0.0428,0.0428,0.038,0.0351,0.0276,0.0169,0.0174,0.006,0.0051,-0.0045,-0.005,-0.002,-0.0022,-0.0009,-0.0009,-0.0009,-0.0008,-0.0008,0,0.033,0.0351,0.038,0.0394,0.0434,0.044,0.0475,0.0478,0.0489,0.0507,0.0462,0.0454,0.0352,0.0274,0.0181,0.0048,0.0064,-0.0039,-0.0071,0.0009,0.0012,-0.0024,-0.0025,-0.0012,-0.0011,-0.001,-0.001,0,0.0334,0.0353,0.0387,0.0424,0.0441,0.0466,0.0512,0.0538,0.0539,0.056,0.0558,0.0502,0.0393,0.0276,0.0137,0.0057,-0.0061,-0.0113,-0.003,-0.0056,-0.0156,-0.0152,-0.0219,-0.0221,-0.0223,-0.0224,-0.0226,0,0.0338,0.0356,0.0409,0.0436,0.0455,0.0497,0.0534,0.0558,0.0586,0.0586,0.0597,0.0507,0.0448,0.0231,0.0097,-0.0097,-0.0123,-0.0185,-0.0154,-0.0151,-0.0176,-0.0169,-0.0163,-0.0228,-0.0229,-0.0229,-0.023,0,0.0345,0.0364,0.0395,0.0454,0.0498,0.0551,0.06,0.0627,0.0654,0.0655,0.0628,0.0523,0.0388,0.0224,0.0059,-0.0073,-0.014,-0.0202,-0.0199,-0.0171,-0.0163,-0.0184,-0.0176,-0.0235,-0.0235,-0.0234,-0.0234,0,0.0349,0.0373,0.0419,0.047,0.0529,0.059,0.0616,0.0649,0.0677,0.068,0.0662,0.0531,0.0454,0.0233,0.0089,-0.0057,-0.0085,-0.0114,-0.0116,-0.0111,-0.0056,-0.0028,-0.0086,0,0,0,0,0,0.0352,0.0383,0.0432,0.0493,0.0554,0.0594,0.0657,0.068,0.0705,0.0694,0.0684,0.0562,0.0346,0.0253,0.0102,0.0044,-0.0122,-0.0139,-0.0159,-0.0267,-0.0261,-0.0218,0,0,0,0,0,0,0.0355,0.04,0.043,0.0505,0.0552,0.0627,0.0672,0.0692,0.0686,0.0686,0.0574,0.0524,0.031,0.0432,0.0099,0.0053,0.002,-0.024,-0.0244,-0.0271,-0.0265,-0.026,-0.0214,0,0,0,0,0]}]]